Flag for U.S.A. Weather past 2 weeks in Scottsdale, Arizona, U.S.A.

Now
58 °F

Cloudy.


Feels Like: 58 °F
Forecast: 53 / 61 °F
Wind: No wind

Location: Scottsdale Airport

Current Time: Jan 31, 2015 at 11:35:16 AM

Latest Report: Jan 31, 2015 at 10:53 AM


Visibility: 10 mi

Pressure: 29.83 "Hg

Humidity: 78%

Dew point: 51 °F

Location of ScottsdaleLocation

Historic Weather in Scottsdale — Graph

°F

Scottsdale temperature yesterday

Maximum temperature yesterday: 59 °F (at 12:53 AM)
Minimum temperature yesterday: 55 °F (at 11:53 PM)
Average temperature yesterday: 56 °F

Past Weeks' High & Low Weather Summary

 TemperatureHumidityPressure
High76 °F (Jan 25, 2:53 PM)94% (Jan 30, 6:02 AM)30.32 "Hg (Jan 30, 6:02 AM)
Low39 °F (Jan 23, 7:53 AM)6% (Jan 24, 4:53 PM)29.78 "Hg (Jan 21, 5:53 AM)
Average59 °F48%30.07 "Hg
* Reported Jan 16 9:53 AM — Jan 31 9:53 AM, Scottsdale, Weather by CustomWeather, © 2014

Note: Actual official high and low records may vary slightly from our data, if they occured in-between our weather recording intervals... More about our weather records

Advertising

Scottsdale weather history for previous 24 hours

 ConditionsComfort  
Time TempWeatherWind HumidityBarometerVisibility
9:53 AM
Jan 31
56 °FOvercast.No wind90%29.82 "Hg10 mi
8:53 AM55 °FMostly cloudy.No wind90%29.80 "Hg10 mi
7:53 AM55 °FOvercast.No wind90%29.79 "Hg10 mi
6:53 AM54 °FMostly cloudy.No wind93%29.78 "Hg10 mi
5:53 AM55 °FMostly cloudy.No wind90%29.78 "Hg10 mi
4:53 AM54 °FOvercast.No wind93%29.78 "Hg10 mi
3:53 AM55 °FOvercast.No wind90%29.79 "Hg10 mi
2:53 AM55 °FMostly cloudy.No wind90%29.81 "Hg10 mi
1:53 AM54 °FMostly cloudy.No wind93%29.82 "Hg10 mi
12:53 AM55 °FOvercast.No wind90%29.82 "Hg10 mi
11:53 PM
Jan 30
55 °FMostly cloudy.No wind90%29.83 "Hg10 mi
11:00 PM55 °FOvercast.No wind88%29.87 "Hg10 mi
9:53 PM56 °FPartly cloudy.No wind87%29.84 "Hg10 mi
8:53 PM56 °FMostly cloudy.No wind87%29.83 "Hg10 mi
7:53 PM56 °FOvercast.No wind87%29.83 "Hg10 mi
6:53 PM56 °FOvercast.No wind87%29.82 "Hg10 mi
5:53 PM56 °FOvercast.No wind87%29.81 "Hg10 mi
4:53 PM56 °FOvercast.No wind90%29.82 "Hg10 mi
3:53 PM56 °FLight rain. Fog.3 mph93%29.83 "Hg4 mi
2:53 PM56 °FLight rain. Fog.3 mph93%29.83 "Hg5 mi
2:01 PM55 °FLight rain. Fog.5 mph94%29.87 "Hg6 mi
1:02 PM55 °FLight rain. Fog.5 mph94%29.89 "Hg1 mi
11:53 AM56 °FLight rain. Fog.3 mph90%29.88 "Hg6 mi
Weather by CustomWeather, © 2014

See weather overviewHow to use our weather pages